This demonstration page uses our WeatherBlox Daily Observations layout. Learn more.

Left ArrowRight Arrow

40.92945, -100.16068

Hourly Observations for March 22, 2021

Temp ( °F °C ) Dew Point ( °F °C ) Humidity (%) Winds ( mph kmh ) Pressure ( in mb ) Visibility ( mi km ) Precip ( " mm )
12:15 am 00:15 Cloudy 46 7.6 34 1.3 65 65 NNE 5 7 30.05 1018 10 16 N/A
12:35 am 00:35 Cloudy 44 6.9 36 2.1 72 72 NNW 6 9 30.06 1018 10 16 N/A
12:55 am 00:55 Cloudy 45 7.1 36 2 70 70 NNW 3 6 30.06 1018 10 16 N/A
1:15 am 01:15 Cloudy 45 7 36 2.2 72 72 N 3 6 30.05 1018 10 16 N/A
1:35 am 01:35 Mostly Cloudy 45 7 35 1.6 69 69 NNE 5 7 30.04 1017 10 16 N/A
1:55 am 01:55 Cloudy 44 6.7 35 1.6 70 70 N 3 6 30.04 1017 10 16 N/A
2:15 am 02:15 Cloudy 43 6.3 36 2.1 75 75 WNW 3 6 30.06 1018 10 16 N/A
2:35 am 02:35 Cloudy 43 6 36 2.3 77 77 N N/A 30.06 1018 10 16 N/A
2:55 am 02:55 Cloudy 43 6 37 2.5 78 78 SW 3 6 30.06 1018 10 16 N/A
3:15 am 03:15 Cloudy 43 5.9 36 2.2 77 77 W 3 6 30.07 1018 10 16 N/A
3:35 am 03:35 Cloudy 42 5.8 36 2.4 79 79 WNW 5 7 30.06 1018 10 16 N/A
3:55 am 03:55 Cloudy 42 5.7 36 2.3 79 79 N N/A 30.03 1017 10 16 N/A
4:15 am 04:15 Cloudy 42 5.4 37 2.5 82 82 N N/A 30.03 1017 10 16 N/A
4:35 am 04:35 Cloudy 41 5.2 36 2.2 81 81 N N/A 30.05 1017 10 16 N/A
4:55 am 04:55 Cloudy 42 5.3 37 2.5 82 82 W 3 6 30.05 1017 10 16 N/A
5:15 am 05:15 Cloudy 41 5.1 37 2.6 84 84 N 3 6 30.03 1017 10 16 N/A
5:35 am 05:35 Mostly Cloudy 41 5.2 37 2.6 84 84 N N/A 30.03 1017 10 16 N/A
5:55 am 05:55 Mostly Cloudy 40 4.7 37 2.7 87 87 N 3 6 30.03 1017 10 16 N/A
6:15 am 06:15 Cloudy 41 5 36 2.1 82 82 N N/A 30.04 1017 10 16 N/A
6:35 am 06:35 Cloudy 40 4.7 36 2 83 83 N 3 6 30.03 1017 10 16 N/A
6:55 am 06:55 Cloudy 41 4.9 35 1.5 79 79 N N/A 30.04 1017 10 16 N/A
7:15 am 07:15 Cloudy 41 5 35 1.9 81 81 N N/A 30.03 1017 10 16 N/A
7:35 am 07:35 Cloudy 42 5.3 33 0.7 73 73 N N/A 30.03 1017 10 16 N/A
7:55 am 07:55 Cloudy 41 5.2 34 1.3 76 76 N N/A 30.03 1017 10 16 N/A
8:35 am 08:35 Cloudy 43 6 34 1 71 71 ENE 5 7 30.01 1016 10 16 N/A
8:57 am 08:57 Cloudy 41 5 34 1 76 76 NE 5 7 30.01 1016 10 16 N/A
9:15 am 09:15 Cloudy 41 5 34 1 76 76 NE 3 6 30.01 1016 10 16 N/A
9:37 am 09:37 Cloudy 43 6 34 1 71 71 ENE 3 6 30.00 1016 10 16 N/A
9:57 am 09:57 Cloudy 43 6 34 1 71 71 NNE 3 6 29.99 1016 10 16 N/A
10:22 am 10:22 Cloudy 43 6 34 1 71 71 ENE 6 9 29.98 1015 10 16 N/A
10:36 am 10:36 Cloudy 43 6 34 1 71 71 E 7 11 29.98 1015 10 16 N/A
10:56 am 10:56 Cloudy with Drizzle 43 6 34 1 71 71 E 8 13 29.99 1016 10 16 N/A
11:39 am 11:39 Cloudy with Drizzle 43 6 37 3 81 81 E 8 13 29.97 1015 10 16 N/A
11:57 am 11:57 Cloudy 43 6 37 3 81 81 E 12 19 29.97 1015 10 16 N/A
12:15 pm 12:15 Cloudy with Drizzle 45 7 37 3 76 76 E 12 19 29.95 1014 10 16 N/A
12:35 pm 12:35 Cloudy with Light Rain 43 6 37 3 81 81 E 10 17 29.95 1014 10 16 N/A
12:59 pm 12:59 Cloudy with Drizzle 43 6 37 3 81 81 ENE 15 24 29.94 1014 10 16 N/A
1:16 pm 13:16 Cloudy with Light Rain 43 6 37 3 81 81 ENE 16 26 29.94 1014 10 16 0.01 0.25
1:35 pm 13:35 Cloudy with Light Rain 43 6 37 3 81 81 E 15 24 29.93 1013 10 16 0.02 0.51
1:55 pm 13:55 Cloudy with Light Rain 41 5 37 3 87 87 ENE 14 22 29.94 1014 10 16 0.04 1.02
2:17 pm 14:17 Cloudy with Rain 41 5 37 3 87 87 NE 15 24 29.92 1013 7 11 0.02 0.51
2:35 pm 14:35 Cloudy with Light Rain 41 5 37 3 87 87 NE 14 22 29.90 1012 10 16 0.05 1.27
2:55 pm 14:55 Cloudy with Light Rain 41 5 37 3 87 87 NE 15 24 29.90 1012 10 16 0.08 2.03
3:15 pm 15:15 Cloudy with Light Rain 41 5 37 3 87 87 NNE 14 22 29.90 1012 10 16 0.02 0.51
3:35 pm 15:35 Cloudy with Light Rain 41 5 37 3 87 87 NE 15 24 29.90 1012 10 16 0.04 1.02
3:55 pm 15:55 Cloudy with Light Rain 39 4 37 3 93 93 NNE 15 24 29.90 1012 10 16 0.07 1.78
4:18 pm 16:18 Cloudy with Light Rain 39 4 36 2 87 87 NE 21 33 29.89 1012 7 11 0.03 0.76
4:37 pm 16:37 Cloudy with Light Rain 39 4 36 2 87 87 NE 15 24 29.90 1012 10 16 0.06 1.52
4:57 pm 16:57 Cloudy with Light Rain 37 3 36 2 93 93 NE 16 26 29.91 1013 7 11 0.09 2.29
5:15 pm 17:15 Cloudy with Light Rain 37 3 36 2 93 93 NE 15 24 29.91 1013 5 8 0.03 0.76
5:37 pm 17:37 Cloudy with Light Rain 37 3 36 2 93 93 NE 16 26 29.91 1013 10 16 0.07 1.78
5:55 pm 17:55 Cloudy with Light Rain 36 2 36 2 100 100 NE 15 24 29.91 1013 10 16 0.09 2.29
6:15 pm 18:15 Cloudy with Light Rain 36 2 36 2 100 100 NE 15 24 29.91 1013 10 16 0.01 0.25
6:38 pm 18:38 Cloudy with Light Rain 36 2 34 1 93 93 NE 15 24 29.90 1012 7 11 0.03 0.76
6:57 pm 18:57 Cloudy with Light Rain 36 2 34 1 93 93 NE 17 28 29.90 1012 10 16 0.04 1.02
7:15 pm 19:15 Cloudy 36 2 34 1 93 93 NE 16 26 29.89 1012 10 16 N/A
7:35 pm 19:35 Cloudy 36 2 34 1 93 93 NE 13 20 29.89 1012 10 16 N/A
7:57 pm 19:57 Cloudy 36 2 34 1 93 93 NE 18 30 29.89 1012 10 16 N/A
8:16 pm 20:16 Cloudy 36 2 34 1 93 93 NNE 15 24 29.89 1012 10 16 N/A
8:35 pm 20:35 Cloudy 36 2 34 1 93 93 NE 18 30 29.88 1012 10 16 N/A
8:57 pm 20:57 Cloudy 36 2 34 1 93 93 NNE 17 28 29.88 1012 10 16 N/A
9:15 pm 21:15 Cloudy with Light Rain 36 2 34 1 93 93 NNE 20 31 29.87 1011 10 16 N/A
9:35 pm 21:35 Cloudy with Light Rain 36 2 34 1 93 93 NNE 16 26 29.87 1011 10 16 N/A
9:55 pm 21:55 Cloudy with Light Rain 36 2 34 1 93 93 NNE 16 26 29.86 1011 10 16 N/A
10:15 pm 22:15 Cloudy with Light Rain 36 2 34 1 93 93 NNE 16 26 29.86 1011 10 16 0.01 0.25
10:35 pm 22:35 Cloudy with Light Rain 36 2 34 1 93 93 NNE 16 26 29.86 1011 10 16 0.01 0.25
10:55 pm 22:55 Cloudy with Drizzle 36 2 34 1 93 93 N 16 26 29.85 1011 10 16 0.01 0.25
11:15 pm 23:15 Cloudy with Drizzle 36 2 34 1 93 93 NNE 14 22 29.84 1010 10 16 N/A
11:37 pm 23:37 Cloudy with Drizzle 36 2 34 1 93 93 NNE 18 30 29.84 1010 7 11 N/A
11:55 pm 23:55 Cloudy with Drizzle 36 2 34 1 93 93 NNE 14 22 29.83 1010 10 16 N/A

Powered by AerisWeather